Weather History for Valdosta Regional, GA

Change the Weather History Date:

Sunday, February 10, 2013

  Actual Average Record
Temperature  
Mean Temperature 64 °F 53 °F  
Max Temperature 78 °F 66 °F 76 °F (2014)
Min Temperature 49 °F 41 °F 44 °F (2014)
Degree Days  
Heating Degree Days 1 12  
Month to date heating degree days 84 129  
Since 1 July heating degree days 713 1198  
Growing Degree Days 13 (Base 50)    
Moisture  
Dew Point 48 °F    
Average Humidity 58    
Maximum Humidity 74    
Minimum Humidity 42    
Precipitation  
Precipitation 0.00 in - 0.00 in (2014)
Month to date precipitation 0.19  
Year to date precipitation 0.95  
Sea Level Pressure  
Sea Level Pressure 30.23 in    
Wind  
Wind Speed 7 mph (SE)    
Max Wind Speed 17 mph    
Max Gust Speed 25 mph    
Visibility 10 miles    
Events      
T = Trace of Precipitation, MM = Missing Value Source: NWS Daily Summary

Daily Weather History Graph

Daily Weather History Graph

Search for Another Location

Airport:

Trip Planner

Search our weather history database for the weather conditions in past years. The results will help you decide how hot, cold, wet, or windy it might be!

Date:

Astronomy

Feb. 10, 2013 Rise Set
Actual Time 7:17 AM EST 6:17 PM EST
Civil Twilight 6:53 AM EST 6:41 PM EST
Nautical Twilight 6:24 AM EST 7:10 PM EST
Astronomical Twilight 5:56 AM EST 7:38 PM EST
Moon 7:12 AM EST (2/10) 6:59 PM EST (2/10)
Length of Visible Light 11h 48m
Length of Day
10h 59m
New Moon, 0% of the Moon is Illuminated
Feb 10
New Moon
Feb 17
First Quarter
Feb 25
Full
Mar 4
Last Quarter
Mar 11
New

Hourly Weather History & Observations

Time (EST) Temp. Dew Point Humidity Pressure Visibility Wind Dir Wind Speed Gust Speed Precip Events Conditions
12:53 AM 48.9 °F 37.0 °F 64% 30.29 in 10.0 mi East 3.5 mph - N/A   Clear
1:53 AM 48.9 °F 37.9 °F 66% 30.28 in 10.0 mi ESE 4.6 mph - N/A   Clear
2:53 AM 48.9 °F 39.0 °F 69% 30.27 in 10.0 mi ESE 4.6 mph - N/A   Clear
3:53 AM 48.9 °F 39.0 °F 69% 30.27 in 10.0 mi Calm Calm - N/A   Clear
4:53 AM 50.0 °F 42.1 °F 74% 30.25 in 10.0 mi ESE 8.1 mph - N/A   Clear
5:53 AM 51.1 °F 42.1 °F 71% 30.26 in 10.0 mi ESE 6.9 mph - N/A   Clear
6:53 AM 50.0 °F 42.1 °F 74% - 10.0 mi ESE 3.5 mph - N/A   Clear
7:53 AM 50.0 °F 43.0 °F 77% 30.29 in 10.0 mi Calm Calm - N/A   Scattered Clouds
8:53 AM 54.0 °F 45.0 °F 72% 30.31 in 10.0 mi ESE 4.6 mph - N/A   Overcast
9:53 AM 61.0 °F 48.0 °F 62% 30.32 in 10.0 mi SE 9.2 mph - N/A   Overcast
10:53 AM 66.9 °F 50.0 °F 54% 30.31 in 10.0 mi SE 17.3 mph 25.3 mph N/A   Partly Cloudy
11:53 AM 72.0 °F 51.1 °F 48% 30.29 in 10.0 mi SSE 12.7 mph 23.0 mph N/A   Mostly Cloudy
12:53 PM 73.9 °F 52.0 °F 46% 30.27 in 10.0 mi SSE 11.5 mph - N/A   Scattered Clouds
1:53 PM 73.9 °F 53.1 °F 48% 30.23 in 10.0 mi South 12.7 mph 19.6 mph N/A   Mostly Cloudy
2:53 PM 75.9 °F 54.0 °F 46% 30.21 in 10.0 mi SE 8.1 mph - N/A   Overcast
3:53 PM 78.1 °F 54.0 °F 43% 30.19 in 10.0 mi SSE 11.5 mph - N/A   Mostly Cloudy
4:53 PM 75.9 °F 53.1 °F 45% 30.17 in 10.0 mi SSE 9.2 mph 20.7 mph N/A   Scattered Clouds
5:53 PM 73.0 °F 54.0 °F 51% 30.16 in 10.0 mi SSE 8.1 mph - N/A   Clear
6:53 PM 66.9 °F 53.1 °F 61% 30.17 in 10.0 mi SSE 4.6 mph - N/A   Scattered Clouds
7:53 PM 68.0 °F 54.0 °F 61% 30.14 in 10.0 mi SSE 8.1 mph - N/A   Clear
8:53 PM 63.0 °F 53.1 °F 70% 30.18 in 10.0 mi Calm Calm - N/A   Clear
9:53 PM 64.9 °F 54.0 °F 68% 30.16 in 10.0 mi SSE 6.9 mph - N/A   Clear
10:53 PM 66.9 °F 55.0 °F 66% 30.17 in 10.0 mi SSE 6.9 mph - N/A   Overcast
11:53 PM 64.9 °F 55.0 °F 70% 30.19 in 10.0 mi SSE 6.9 mph - N/A   Mostly Cloudy